timestamp,surface_pressure_avg,surface_temp_avg,battery_voltage,lat,long
2024-04-24 00:09:00+00:00,344.7213,2.97,12.25,47.84626,-54.09684
2024-04-24 00:19:00+00:00,344.9196,3.0,12.25,47.84626,-54.09684
2024-04-24 00:29:00+00:00,347.70300000000015,3.0,12.25,47.84626,-54.09684
2024-04-24 00:39:00+00:00,344.3129,3.01,12.25,47.84626,-54.09684
2024-04-24 00:49:00+00:00,339.8763,3.09,12.25,47.84626,-54.09684
2024-04-24 00:59:00+00:00,336.6263,3.0,12.25,47.84626,-54.09684
2024-04-24 01:09:00+00:00,332.8730000000001,3.05,12.25,47.84626,-54.09684
2024-04-24 01:19:00+00:00,324.583,3.07,12.25,47.84626,-54.09684
2024-04-24 01:29:00+00:00,324.0947,3.09,12.25,47.84626,-54.09684
2024-04-24 01:39:00+00:00,318.8796,3.1,12.25,47.84626,-54.09684
2024-04-24 01:49:00+00:00,312.7263,3.13,12.25,47.84626,-54.09684
2024-04-24 01:59:00+00:00,306.318,3.2,12.25,47.84626,-54.09684
2024-04-24 02:09:00+00:00,299.513,3.24,12.25,47.84626,-54.09684
2024-04-24 02:19:00+00:00,290.5164,3.39,12.17,47.84626,-54.09684
2024-04-24 02:29:00+00:00,280.8163,3.4,12.17,47.84626,-54.09684
2024-04-24 02:39:00+00:00,274.9231,3.4,12.17,47.84626,-54.09684
2024-04-24 02:49:00+00:00,272.7547,3.48,12.17,47.84626,-54.09684
2024-04-24 02:59:00+00:00,267.9197,3.43,12.17,47.84626,-54.09684
2024-04-24 03:09:00+00:00,259.4797,3.45,12.17,47.84626,-54.09684
2024-04-24 03:19:00+00:00,249.1881,3.4,12.17,47.84626,-54.09684
2024-04-24 03:29:00+00:00,240.4514,3.4,12.17,47.84626,-54.09684
2024-04-24 03:39:00+00:00,234.0214,3.31,12.17,47.84626,-54.09684
2024-04-24 03:49:00+00:00,225.6881,3.3,12.17,47.84626,-54.09684
2024-04-24 03:59:00+00:00,220.458,3.3,12.17,47.84626,-54.09684
2024-04-24 04:09:00+00:00,211.5764,3.3,12.17,47.84626,-54.09684
2024-04-24 04:19:00+00:00,204.1897,3.3,12.17,47.84626,-54.09684
2024-04-24 04:29:00+00:00,201.5865,3.3,12.17,47.84626,-54.09684
2024-04-24 04:39:00+00:00,196.9781,3.3,12.17,47.84626,-54.09684
2024-04-24 04:49:00+00:00,196.8831,3.3,12.17,47.84626,-54.09684
2024-04-24 04:59:00+00:00,194.9498,3.3,12.17,47.84626,-54.09684
2024-04-24 05:09:00+00:00,188.8831,3.3,12.17,47.84626,-54.09684
2024-04-24 05:19:00+00:00,186.2231,3.3,12.09,47.84626,-54.09684
2024-04-24 05:29:00+00:00,184.0664,3.3,12.09,47.84626,-54.09684
2024-04-24 05:39:00+00:00,182.9431,3.34,12.09,47.84626,-54.09684
2024-04-24 05:49:00+00:00,185.0398,3.36,12.09,47.84626,-54.09684
2024-04-24 05:59:00+00:00,189.1615,3.38,12.09,47.84626,-54.09684
2024-04-24 06:09:00+00:00,189.4281,3.39,12.09,47.84626,-54.09684
2024-04-24 06:19:00+00:00,192.9614,3.39,12.09,47.84626,-54.09684
2024-04-24 06:29:00+00:00,199.3514,3.37,12.09,47.84626,-54.09684
2024-04-24 06:39:00+00:00,200.6098,3.36,12.09,47.84626,-54.09684
2024-04-24 06:49:00+00:00,202.3281,3.31,12.09,47.84626,-54.09684
2024-04-24 06:59:00+00:00,207.2231,3.34,12.09,47.84626,-54.09684
2024-04-24 07:09:00+00:00,209.0314,3.36,12.09,47.84626,-54.09684
2024-04-24 07:19:00+00:00,208.9847,3.38,12.09,47.84626,-54.09684
2024-04-24 07:29:00+00:00,214.6481,3.38,12.09,47.84626,-54.09684
2024-04-24 07:39:00+00:00,217.0281,3.36,12.09,47.84626,-54.09684
2024-04-24 07:49:00+00:00,217.6614,3.3,12.09,47.84626,-54.09684
2024-04-24 07:59:00+00:00,223.4297,3.3,12.09,47.84626,-54.09684
2024-04-24 08:09:00+00:00,230.8981,3.3,12.09,47.84626,-54.09684
2024-04-24 08:19:00+00:00,233.0431,3.3,12.09,47.84626,-54.09684
2024-04-24 08:29:00+00:00,233.9398,3.26,12.09,47.84626,-54.09684
2024-04-24 08:39:00+00:00,238.3331,3.2,12.09,47.84626,-54.09684
2024-04-24 08:49:00+00:00,242.8465,3.22,12.09,47.84626,-54.09684
2024-04-24 08:59:00+00:00,246.8831,3.2,12.09,47.84626,-54.09684
2024-04-24 09:09:00+00:00,252.4248,3.2,12.09,47.84626,-54.09684
2024-04-24 09:19:00+00:00,255.8814,3.2,12.09,47.84626,-54.09684
2024-04-24 09:29:00+00:00,258.1597,3.2,12.09,47.84626,-54.09684
2024-04-24 09:39:00+00:00,264.1047,3.2,12.09,47.84626,-54.09684
2024-04-24 09:49:00+00:00,277.4564,3.2,12.09,47.84626,-54.09684
2024-04-24 09:59:00+00:00,288.298,3.2,12.09,47.84626,-54.09684
2024-04-24 10:09:00+00:00,294.6063,3.14,12.09,47.84626,-54.09684
2024-04-24 10:19:00+00:00,299.6081,3.1,12.09,47.84626,-54.09684
2024-04-24 10:29:00+00:00,307.3247,3.1,12.09,47.84626,-54.09684
2024-04-24 10:39:00+00:00,311.6697,3.12,12.09,47.84626,-54.09684
2024-04-24 10:49:00+00:00,315.6063,3.1,12.09,47.84626,-54.09684
2024-04-24 10:59:00+00:00,320.9263,3.1,12.09,47.84626,-54.09684
2024-04-24 11:09:00+00:00,329.7296,3.1,12.09,47.84626,-54.09684
2024-04-24 11:19:00+00:00,335.8946,3.1,12.09,47.84626,-54.09684
2024-04-24 11:29:00+00:00,334.5713,3.0,12.09,47.84626,-54.09684
2024-04-24 11:39:00+00:00,339.7463,2.9,12.09,47.84626,-54.09684
2024-04-24 11:49:00+00:00,343.9012,2.8,12.09,47.84626,-54.09684
2024-04-24 11:59:00+00:00,347.3762,2.7,12.09,47.84626,-54.09684
2024-04-24 12:09:00+00:00,346.293,2.68,12.09,47.84626,-54.09684
2024-04-24 12:19:00+00:00,347.68300000000005,2.57,12.09,47.84626,-54.09684
2024-04-24 12:29:00+00:00,353.7014,2.5,12.09,47.84626,-54.09684
2024-04-24 12:39:00+00:00,343.8929,2.52,12.09,47.84626,-54.09684
2024-04-24 12:49:00+00:00,335.8780000000001,2.6,12.09,47.84626,-54.09684
2024-04-24 12:59:00+00:00,338.663,2.71,12.09,47.84626,-54.09684
2024-04-24 13:09:00+00:00,339.3463,2.89,12.09,47.84626,-54.09684
2024-04-24 13:19:00+00:00,328.9647,3.04,12.09,47.84626,-54.09684
2024-04-24 13:29:00+00:00,321.1346,3.1,12.09,47.84626,-54.09684
2024-04-24 13:39:00+00:00,319.5264,3.1,12.09,47.84626,-54.09684
2024-04-24 13:49:00+00:00,319.0231,3.1,12.09,47.84626,-54.09684
2024-04-24 13:59:00+00:00,309.7863,3.1,12.09,47.84626,-54.09684
2024-04-24 14:09:00+00:00,304.7463,3.1,12.09,47.84626,-54.09684
2024-04-24 14:19:00+00:00,306.7147,3.0,12.09,47.84626,-54.09684
2024-04-24 14:29:00+00:00,302.0731,3.08,12.09,47.84626,-54.09684
2024-04-24 14:39:00+00:00,283.1813,3.1,12.09,47.84626,-54.09684
2024-04-24 14:49:00+00:00,279.1014,3.1,12.09,47.84626,-54.09684
2024-04-24 14:59:00+00:00,278.4231,3.1,12.09,47.84626,-54.09684
2024-04-24 15:09:00+00:00,264.1998,3.1,12.09,47.84626,-54.09684
2024-04-24 15:19:00+00:00,257.2765,3.2,12.09,47.84626,-54.09684
2024-04-24 15:29:00+00:00,252.4331,3.2,12.09,47.84626,-54.09684
2024-04-24 15:39:00+00:00,247.2381,3.2,12.09,47.84626,-54.09684
2024-04-24 15:49:00+00:00,236.7514,3.2,12.09,47.84626,-54.09684
2024-04-24 15:59:00+00:00,231.5131,3.2,12.09,47.84626,-54.09684
2024-04-24 16:09:00+00:00,226.7681,3.26,12.09,47.84626,-54.09684
2024-04-24 16:19:00+00:00,216.8214,3.3,12.17,47.84626,-54.09684
2024-04-24 16:29:00+00:00,207.4181,3.32,12.17,47.84626,-54.09684
2024-04-24 16:39:00+00:00,199.8131,3.35,12.17,47.84626,-54.09684
2024-04-24 16:49:00+00:00,193.4031,3.36,12.17,47.84626,-54.09684
2024-04-24 16:59:00+00:00,192.6415,3.35,12.17,47.84626,-54.09684
2024-04-24 17:09:00+00:00,189.1632,3.34,12.17,47.84626,-54.09684
2024-04-24 17:19:00+00:00,186.6848,3.3,12.17,47.84626,-54.09684
2024-04-24 17:29:00+00:00,182.9615,3.3,12.17,47.84626,-54.09684
2024-04-24 17:39:00+00:00,175.9332,3.3,12.17,47.84626,-54.09684
2024-04-24 17:49:00+00:00,175.273,3.3,12.17,47.84626,-54.09684
2024-04-24 17:59:00+00:00,181.8448,3.24,12.17,47.84626,-54.09684
2024-04-24 18:09:00+00:00,181.8332,3.2,12.17,47.84626,-54.09684
2024-04-24 18:19:00+00:00,179.0449,3.2,12.17,47.84626,-54.09684
2024-04-24 18:29:00+00:00,186.0598,3.2,12.17,47.84626,-54.09684
2024-04-24 18:39:00+00:00,192.3965,3.14,12.17,47.84626,-54.09684
2024-04-24 18:49:00+00:00,195.9098,3.1,12.17,47.84626,-54.09684
2024-04-24 18:59:00+00:00,204.6614,3.1,12.17,47.84626,-54.09684
2024-04-24 19:09:00+00:00,210.2031,3.1,12.17,47.84626,-54.09684
2024-04-24 19:19:00+00:00,206.4531,3.1,12.17,47.84626,-54.09684
2024-04-24 19:29:00+00:00,211.1848,3.1,12.17,47.84626,-54.09684
2024-04-24 19:39:00+00:00,223.0147,3.1,12.17,47.84626,-54.09684
2024-04-24 19:49:00+00:00,222.3265,3.1,12.17,47.84626,-54.09684
2024-04-24 19:59:00+00:00,218.6248,3.1,12.17,47.84626,-54.09684
2024-04-24 20:09:00+00:00,224.8065,3.1,12.17,47.84626,-54.09684
2024-04-24 20:19:00+00:00,231.6281,3.1,12.17,47.84626,-54.09684
2024-04-24 20:29:00+00:00,235.6497,3.1,12.17,47.84626,-54.09684
2024-04-24 20:39:00+00:00,242.5115,3.1,12.17,47.84626,-54.09684
2024-04-24 20:49:00+00:00,248.3864,3.0,12.17,47.84626,-54.09684
2024-04-24 20:59:00+00:00,252.0648,3.0,12.17,47.84626,-54.09684
2024-04-24 21:09:00+00:00,257.2647,3.0,12.17,47.84626,-54.09684
2024-04-24 21:19:00+00:00,266.8981,3.0,12.17,47.84626,-54.09684
2024-04-24 21:29:00+00:00,278.8113,2.98,12.17,47.84626,-54.09684
2024-04-24 21:39:00+00:00,283.5831,3.0,12.17,47.84626,-54.09684
2024-04-24 21:49:00+00:00,288.5564,2.99,12.17,47.84626,-54.09684
2024-04-24 21:59:00+00:00,296.7798,2.9,12.17,47.84626,-54.09684
2024-04-24 22:09:00+00:00,308.158,2.8,12.17,47.84626,-54.09684
2024-04-24 22:19:00+00:00,313.3597,2.8,12.17,47.84626,-54.09684
2024-04-24 22:29:00+00:00,318.2079,2.7,12.17,47.84626,-54.09684
2024-04-24 22:39:00+00:00,331.86800000000005,2.42,12.17,47.84626,-54.09684
2024-04-24 22:49:00+00:00,338.7612,2.43,12.17,47.84626,-54.09684
2024-04-24 22:59:00+00:00,342.3746,2.3,12.17,47.84626,-54.09684
2024-04-24 23:09:00+00:00,352.0663,2.2,12.17,47.84626,-54.09684
2024-04-24 23:19:00+00:00,360.1713,2.21,12.17,47.84626,-54.09684
2024-04-24 23:29:00+00:00,357.7912,2.37,12.17,47.84626,-54.09684
2024-04-24 23:39:00+00:00,359.173,2.39,12.17,47.84626,-54.09684
2024-04-24 23:49:00+00:00,365.7012,2.2,12.17,47.84626,-54.09684
2024-04-24 23:59:00+00:00,366.5212,2.27,12.17,47.84626,-54.09684
